Flag for U.S.A. Weather past 2 weeks in Irving, Texas, U.S.A.

Now
83 °F

Partly sunny.


Feels Like: 83 °F
Forecast: 77 / 93 °F
Wind: 5 mph from Southeast

Location: Dallas / Fort Worth International Airport

Current Time: Jul 29, 2014 at 12:59:03 PM

Latest Report: Jul 29, 2014 at 11:53 AM


Visibility: 10 mi

Pressure: 30.13 "Hg

Humidity: 48%

Dew point: 61 °F

Location of IrvingLocation

Historic Weather in Irving — Graph

°F

Irving temperature yesterday

Maximum temperature yesterday: 95 °F (at 12:53 PM)
Minimum temperature yesterday: 79 °F (at 11:53 PM)
Average temperature yesterday: 87 °F

Past Weeks' High & Low Weather Summary

 TemperatureHumidityPressure
High102 °F (Jul 27, 4:53 PM)94% (Jul 18, 5:53 AM)30.13 "Hg (Jul 18, 5:53 AM)
Low65 °F (Jul 18, 5:53 AM)24% (Jul 15, 5:53 PM)29.84 "Hg (Jul 17, 5:53 AM)
Average82 °F61%29.97 "Hg
* Reported Jul 14 10:53 AM — Jul 29 10:53 AM, Irving, Weather by CustomWeather, © 2014

Note: Actual official high and low records may vary slightly from our data, if they occured in-between our weather recording intervals... More about our weather records

Advertising

Irving weather history for previous 24 hours

 ConditionsComfort  
Time TempWeatherWind HumidityBarometerVisibility
10:53 AM
Jul 29
82 °FBroken clouds.3 mph51%30.13 "Hg10 mi
9:53 AM80 °FBroken clouds.6 mph52%30.12 "Hg10 mi
8:53 AM79 °FPartly sunny.6 mph54%30.12 "Hg10 mi
7:53 AM78 °FBroken clouds.8 mph56%30.11 "Hg10 mi
6:53 AM76 °FPassing clouds.5 mph60%30.09 "Hg10 mi
5:53 AM74 °FPassing clouds.5 mph64%30.08 "Hg10 mi
4:53 AM73 °FPassing clouds.5 mph66%30.06 "Hg10 mi
3:53 AM75 °FPassing clouds.5 mph60%30.07 "Hg10 mi
2:53 AM79 °FPassing clouds.6 mph54%30.07 "Hg10 mi
1:53 AM79 °FPassing clouds.6 mph56%30.07 "Hg10 mi
12:53 AM79 °FPassing clouds.8 mph58%30.08 "Hg10 mi
11:53 PM
Jul 28
79 °FPassing clouds.7 mph56%30.09 "Hg10 mi
10:53 PM81 °FPassing clouds.8 mph53%30.08 "Hg10 mi
9:53 PM83 °FPassing clouds.8 mph51%30.07 "Hg10 mi
8:53 PM85 °FScattered clouds.10 mph46%30.05 "Hg10 mi
7:53 PM88 °FPartly sunny.12 mph40%30.04 "Hg10 mi
6:53 PM88 °FBroken clouds.14 mph43%30.04 "Hg10 mi
5:53 PM90 °FBroken clouds.17 mph41%30.05 "Hg10 mi
4:53 PM92 °FPartly sunny.17 mph32%30.07 "Hg10 mi
3:53 PM91 °FBroken clouds.24 mph44%30.08 "Hg10 mi
2:53 PM95 °FBroken clouds.20 mph40%30.08 "Hg10 mi
1:53 PM94 °FBroken clouds.15 mph40%30.09 "Hg10 mi
12:53 PM95 °FBroken clouds.16 mph41%30.10 "Hg10 mi
Weather by CustomWeather, © 2014

See weather overviewHow to use our weather pages